Time,TemperatureF,DewpointF,PressureIn,WindDirection,WindDirectionDegrees,WindSpeedMPH,WindSpeedGustMPH,Humidity,HourlyPrecipIn,Conditions,Clouds,dailyrainin,SoftwareType,DateUTC
2013-03-08 00:01:00,31.0,20.0,-100.00,SSE,150,5.0,9.0,61,0.00,,,-99.99,,2013-03-08 07:01:00,
2013-03-08 00:11:00,31.0,19.0,-100.00,SSE,150,7.0,9.0,61,0.00,,,-99.99,,2013-03-08 07:11:00,
2013-03-08 00:22:00,31.0,19.0,-100.00,SSE,150,7.0,9.0,61,0.00,,,-99.99,,2013-03-08 07:22:00,
2013-03-08 00:32:00,31.0,19.0,-100.00,SSE,150,7.0,9.0,61,0.00,,,-99.99,,2013-03-08 07:32:00,
2013-03-08 00:42:00,31.0,19.0,-100.00,SSE,150,7.0,9.0,61,0.00,,,-99.99,,2013-03-08 07:42:00,
2013-03-08 01:32:00,31.0,18.0,-100.00,SSE,160,7.0,12.0,59,0.00,,,-99.99,,2013-03-08 08:32:00,
2013-03-08 01:42:00,31.0,19.0,-100.00,East,100,3.0,12.0,59,0.00,,,-99.99,,2013-03-08 08:42:00,
2013-03-08 01:52:00,31.0,19.0,-100.00,SE,125,4.0,7.0,59,0.00,,,-99.99,,2013-03-08 08:52:00,
2013-03-08 02:03:00,31.0,19.0,-100.00,SSE,160,0.0,7.0,59,0.00,,,-99.99,,2013-03-08 09:03:00,
2013-03-08 02:11:00,31.0,19.0,-100.00,SSE,160,4.0,9.0,59,0.00,,,-99.99,,2013-03-08 09:11:00,
2013-03-08 02:21:00,31.0,19.0,-100.00,SE,140,7.0,11.0,59,0.00,,,-99.99,,2013-03-08 09:21:00,
2013-03-08 02:32:00,31.0,19.0,-100.00,South,170,4.0,9.0,58,0.00,,,-99.99,,2013-03-08 09:32:00,
2013-03-08 02:42:00,30.0,18.0,-100.00,SE,140,4.0,7.0,59,0.00,,,-99.99,,2013-03-08 09:42:00,
2013-03-08 02:52:00,30.0,19.0,-100.00,ESE,115,2.0,6.0,61,0.00,,,-99.99,,2013-03-08 09:52:00,
2013-03-08 03:01:00,29.0,18.0,-100.00,South,185,3.0,8.0,61,0.00,,,-99.99,,2013-03-08 10:01:00,
2013-03-08 03:11:00,29.0,18.0,-100.00,South,185,2.0,9.0,63,0.00,,,-99.99,,2013-03-08 10:11:00,
2013-03-08 03:21:00,29.0,18.0,-100.00,South,175,1.0,7.0,64,0.00,,,-99.99,,2013-03-08 10:21:00,
2013-03-08 03:32:00,28.0,18.0,-100.00,West,265,1.0,6.0,65,0.00,,,-99.99,,2013-03-08 10:32:00,
2013-03-08 03:42:00,28.0,18.0,-100.00,East,90,3.0,5.0,66,0.00,,,-99.99,,2013-03-08 10:42:00,
2013-03-08 03:51:00,28.0,19.0,-100.00,SSE,155,1.0,4.0,67,0.00,,,-99.99,,2013-03-08 10:51:00,
2013-03-08 04:01:00,28.0,19.0,-100.00,ESE,115,1.0,6.0,68,0.00,,,-99.99,,2013-03-08 11:01:00,
2013-03-08 04:11:00,28.0,19.0,-100.00,SE,130,4.0,6.0,68,0.00,,,-99.99,,2013-03-08 11:11:00,
2013-03-08 04:21:00,27.0,19.0,-100.00,SSE,160,6.0,7.0,68,0.00,,,-99.99,,2013-03-08 11:21:00,
2013-03-08 04:32:00,28.0,19.0,-100.00,SSE,150,7.0,9.0,68,0.00,,,-99.99,,2013-03-08 11:32:00,
2013-03-08 04:42:00,28.0,19.0,-100.00,SE,135,4.0,9.0,68,0.00,,,-99.99,,2013-03-08 11:42:00,
2013-03-08 04:52:00,28.0,19.0,-100.00,ESE,115,4.0,9.0,68,0.00,,,-99.99,,2013-03-08 11:52:00,
2013-03-08 05:02:00,27.0,19.0,-100.00,SSE,160,7.0,8.0,69,0.00,,,-99.99,,2013-03-08 12:02:00,
2013-03-08 05:11:00,27.0,19.0,-100.00,South,170,6.0,9.0,70,0.00,,,-99.99,,2013-03-08 12:11:00,
2013-03-08 05:22:00,27.0,19.0,-100.00,SE,140,6.0,7.0,70,0.00,,,-99.99,,2013-03-08 12:22:00,
2013-03-08 05:32:00,27.0,19.0,-100.00,SSE,155,6.0,10.0,70,0.00,,,-99.99,,2013-03-08 12:32:00,
2013-03-08 05:43:00,27.0,19.0,-100.00,SSE,150,6.0,9.0,70,0.00,,,-99.99,,2013-03-08 12:43:00,
2013-03-08 05:52:00,28.0,19.0,-100.00,SSE,155,7.0,9.0,70,0.00,,,-99.99,,2013-03-08 12:52:00,
2013-03-08 06:01:00,28.0,20.0,-100.00,SSE,150,6.0,11.0,70,0.00,,,-99.99,,2013-03-08 13:01:00,
2013-03-08 06:11:00,28.0,20.0,-100.00,ESE,110,4.0,7.0,69,0.00,,,-99.99,,2013-03-08 13:11:00,
2013-03-08 06:21:00,28.0,20.0,-100.00,East,80,2.0,6.0,69,0.00,,,-99.99,,2013-03-08 13:21:00,
2013-03-08 06:32:00,28.0,19.0,-100.00,SE,125,3.0,6.0,69,0.00,,,-99.99,,2013-03-08 13:32:00,
2013-03-08 06:42:00,28.0,20.0,-100.00,SE,140,2.0,6.0,69,0.00,,,-99.99,,2013-03-08 13:42:00,
2013-03-08 06:52:00,27.0,19.0,-100.00,SSE,160,5.0,7.0,69,0.00,,,-99.99,,2013-03-08 13:52:00,
2013-03-08 07:02:00,28.0,19.0,-100.00,East,80,1.0,7.0,70,0.00,,,-99.99,,2013-03-08 14:02:00,
2013-03-08 07:11:00,27.0,19.0,-100.00,SE,145,3.0,6.0,70,0.00,,,-99.99,,2013-03-08 14:11:00,
2013-03-08 07:22:00,27.0,19.0,-100.00,SSE,155,6.0,9.0,70,0.00,,,-99.99,,2013-03-08 14:22:00,
2013-03-08 07:32:00,28.0,19.0,-100.00,SSE,155,4.0,9.0,70,0.00,,,-99.99,,2013-03-08 14:32:00,
2013-03-08 07:42:00,28.0,19.0,-100.00,SSE,155,5.0,7.0,70,0.00,,,-99.99,,2013-03-08 14:42:00,
2013-03-08 07:52:00,27.0,19.0,-100.00,SSE,155,5.0,8.0,70,0.00,,,-99.99,,2013-03-08 14:52:00,
2013-03-08 08:03:00,27.0,19.0,-100.00,SSE,160,6.0,8.0,70,0.00,,,-99.99,,2013-03-08 15:03:00,
2013-03-08 08:11:00,28.0,20.0,-100.00,SSE,155,4.0,7.0,70,0.00,,,-99.99,,2013-03-08 15:11:00,
2013-03-08 08:22:00,29.0,20.0,-100.00,SSE,160,4.0,7.0,68,0.00,,,-99.99,,2013-03-08 15:22:00,
2013-03-08 08:32:00,30.0,20.0,-100.00,SSE,165,6.0,9.0,67,0.00,,,-99.99,,2013-03-08 15:32:00,
2013-03-08 08:42:00,31.0,21.0,-100.00,SSE,160,6.0,7.0,66,0.00,,,-99.99,,2013-03-08 15:42:00,
2013-03-08 08:53:00,35.0,24.0,-100.00,SSE,150,6.0,7.0,62,0.00,,,-99.99,,2013-03-08 15:53:00,
2013-03-08 09:01:00,37.0,23.0,-100.00,East,90,4.0,7.0,56,0.00,,,-99.99,,2013-03-08 16:01:00,
2013-03-08 09:11:00,39.0,23.0,-100.00,ESE,110,2.0,4.0,52,0.00,,,-99.99,,2013-03-08 16:11:00,
2013-03-08 09:22:00,40.0,22.0,-100.00,SE,130,2.0,4.0,49,0.00,,,-99.99,,2013-03-08 16:22:00,
2013-03-08 09:32:00,42.0,23.0,-100.00,ESE,120,1.0,9.0,47,0.00,,,-99.99,,2013-03-08 16:32:00,
2013-03-08 09:42:00,45.0,24.0,-100.00,ESE,115,1.0,2.0,44,0.00,,,-99.99,,2013-03-08 16:42:00,
2013-03-08 09:52:00,46.0,24.0,-100.00,SSW,210,1.0,4.0,39,0.00,,,-99.99,,2013-03-08 16:52:00,
2013-03-08 10:02:00,46.0,21.0,-100.00,WNW,285,7.0,8.0,36,0.00,,,-99.99,,2013-03-08 17:02:00,
2013-03-08 10:11:00,44.0,20.0,-100.00,WNW,295,5.0,7.0,38,0.00,,,-99.99,,2013-03-08 17:11:00,
2013-03-08 10:21:00,44.0,20.0,-100.00,WNW,295,4.0,7.0,38,0.00,,,-99.99,,2013-03-08 17:21:00,
2013-03-08 10:32:00,46.0,21.0,-100.00,West,280,4.0,7.0,36,0.00,,,-99.99,,2013-03-08 17:32:00,
2013-03-08 10:42:00,47.0,21.0,-100.00,WNW,290,6.0,8.0,34,0.00,,,-99.99,,2013-03-08 17:42:00,
2013-03-08 10:52:00,48.0,21.0,-100.00,WNW,285,4.0,7.0,33,0.00,,,-99.99,,2013-03-08 17:52:00,
2013-03-08 11:02:00,49.0,21.0,-100.00,NW,305,4.0,8.0,32,0.00,,,-99.99,,2013-03-08 18:02:00,
2013-03-08 11:11:00,50.0,20.0,-100.00,WNW,285,7.0,9.0,30,0.00,,,-99.99,,2013-03-08 18:11:00,
2013-03-08 11:21:00,50.0,19.0,-100.00,WNW,290,7.0,11.0,29,0.00,,,-99.99,,2013-03-08 18:21:00,
2013-03-08 11:32:00,50.0,20.0,-100.00,West,280,7.0,10.0,29,0.00,,,-99.99,,2013-03-08 18:32:00,
2013-03-08 11:42:00,51.0,20.0,-100.00,West,280,7.0,11.0,29,0.00,,,-99.99,,2013-03-08 18:42:00,
2013-03-08 11:52:00,51.0,20.0,-100.00,WNW,295,7.0,11.0,28,0.00,,,-99.99,,2013-03-08 18:52:00,
2013-03-08 12:01:00,51.0,19.0,-100.00,WNW,300,9.0,11.0,27,0.00,,,-99.99,,2013-03-08 19:01:00,
2013-03-08 12:11:00,52.0,19.0,-100.00,WNW,295,7.0,11.0,27,0.00,,,-99.99,,2013-03-08 19:11:00,
2013-03-08 12:22:00,52.0,19.0,-100.00,WNW,290,9.0,11.0,27,0.00,,,-99.99,,2013-03-08 19:22:00,
2013-03-08 12:32:00,53.0,19.0,-100.00,WNW,295,7.0,11.0,26,0.00,,,-99.99,,2013-03-08 19:32:00,
2013-03-08 12:42:00,52.0,19.0,-100.00,WNW,295,7.0,11.0,26,0.00,,,-99.99,,2013-03-08 19:42:00,
2013-03-08 12:52:00,53.0,19.0,-100.00,West,280,7.0,11.0,26,0.00,,,-99.99,,2013-03-08 19:52:00,
2013-03-08 13:01:00,52.0,19.0,-100.00,WNW,285,8.0,11.0,26,0.00,,,-99.99,,2013-03-08 20:01:00,
2013-03-08 13:11:00,52.0,19.0,-100.00,WNW,295,7.0,10.0,26,0.00,,,-99.99,,2013-03-08 20:11:00,
2013-03-08 13:21:00,52.0,19.0,-100.00,WNW,290,7.0,10.0,26,0.00,,,-99.99,,2013-03-08 20:21:00,
2013-03-08 13:32:00,53.0,19.0,-100.00,NW,315,1.0,9.0,26,0.00,,,-99.99,,2013-03-08 20:32:00,
2013-03-08 13:42:00,53.0,19.0,-100.00,WNW,290,4.0,9.0,25,0.00,,,-99.99,,2013-03-08 20:42:00,
2013-03-08 13:52:00,52.0,18.0,-100.00,WNW,290,4.0,7.0,25,0.00,,,-99.99,,2013-03-08 20:52:00,
2013-03-08 14:02:00,53.0,18.0,-100.00,WNW,290,4.0,7.0,25,0.00,,,-99.99,,2013-03-08 21:02:00,
2013-03-08 14:11:00,53.0,17.0,-100.00,WNW,295,4.0,7.0,24,0.00,,,-99.99,,2013-03-08 21:11:00,
2013-03-08 14:21:00,52.0,17.0,-100.00,WNW,290,2.0,6.0,24,0.00,,,-99.99,,2013-03-08 21:21:00,
2013-03-08 14:32:00,52.0,17.0,-100.00,NW,305,4.0,6.0,24,0.00,,,-99.99,,2013-03-08 21:32:00,
2013-03-08 14:42:00,51.0,18.0,-100.00,NNW,345,4.0,12.0,25,0.00,,,-99.99,,2013-03-08 21:42:00,
2013-03-08 14:52:00,50.0,17.0,-100.00,WNW,300,8.0,16.0,27,0.00,,,-99.99,,2013-03-08 21:52:00,
2013-03-08 15:01:00,49.0,18.0,-100.00,WNW,300,6.0,11.0,29,0.00,,,-99.99,,2013-03-08 22:01:00,
2013-03-08 15:11:00,48.0,19.0,-100.00,West,280,7.0,9.0,30,0.00,,,-99.99,,2013-03-08 22:11:00,
2013-03-08 15:22:00,48.0,19.0,-100.00,West,280,2.0,7.0,30,0.00,,,-99.99,,2013-03-08 22:22:00,
2013-03-08 15:32:00,48.0,19.0,-100.00,WSW,255,3.0,8.0,31,0.00,,,-99.99,,2013-03-08 22:32:00,
2013-03-08 15:42:00,48.0,20.0,-100.00,WSW,245,4.0,12.0,32,0.00,,,-99.99,,2013-03-08 22:42:00,
2013-03-08 15:52:00,48.0,20.0,-100.00,WSW,240,2.0,9.0,33,0.00,,,-99.99,,2013-03-08 22:52:00,
2013-03-08 16:01:00,48.0,21.0,-100.00,WNW,295,4.0,7.0,33,0.00,,,-99.99,,2013-03-08 23:01:00,
2013-03-08 16:12:00,48.0,22.0,-100.00,WNW,285,7.0,14.0,34,0.00,,,-99.99,,2013-03-08 23:12:00,
2013-03-08 16:22:00,47.0,22.0,-100.00,WNW,300,9.0,14.0,36,0.00,,,-99.99,,2013-03-08 23:22:00,
2013-03-08 16:32:00,46.0,23.0,-100.00,West,280,6.0,13.0,39,0.00,,,-99.99,,2013-03-08 23:32:00,
2013-03-08 16:42:00,45.0,24.0,-100.00,West,275,8.0,12.0,41,0.00,,,-99.99,,2013-03-08 23:42:00,
2013-03-08 16:52:00,45.0,24.0,-100.00,West,280,6.0,14.0,44,0.00,,,-99.99,,2013-03-08 23:52:00,
2013-03-08 17:02:00,45.0,25.0,-100.00,WNW,285,5.0,12.0,46,0.00,,,-99.99,,2013-03-09 00:02:00,
2013-03-08 17:11:00,44.0,26.0,-100.00,SW,225,4.0,11.0,47,0.00,,,-99.99,,2013-03-09 00:11:00,
2013-03-08 17:22:00,44.0,26.0,-100.00,WNW,285,7.0,9.0,49,0.00,,,-99.99,,2013-03-09 00:22:00,
2013-03-08 17:32:00,44.0,26.0,-100.00,WSW,240,3.0,12.0,50,0.00,,,-99.99,,2013-03-09 00:32:00,
2013-03-08 17:42:00,43.0,27.0,-100.00,West,260,3.0,6.0,51,0.00,,,-99.99,,2013-03-09 00:42:00,
2013-03-08 17:52:00,43.0,27.0,-100.00,SW,235,3.0,7.0,52,0.00,,,-99.99,,2013-03-09 00:52:00,
2013-03-08 18:01:00,42.0,27.0,-100.00,WNW,295,3.0,6.0,53,0.00,,,-99.99,,2013-03-09 01:01:00,
2013-03-08 18:12:00,42.0,27.0,-100.00,WSW,255,1.0,6.0,54,0.00,,,-99.99,,2013-03-09 01:12:00,
2013-03-08 18:22:00,42.0,28.0,-100.00,NNW,335,1.0,8.0,55,0.00,,,-99.99,,2013-03-09 01:22:00,
2013-03-08 18:32:00,41.0,27.0,-100.00,WNW,295,3.0,4.0,57,0.00,,,-99.99,,2013-03-09 01:32:00,
2013-03-08 18:42:00,41.0,28.0,-100.00,NNW,340,0.0,3.0,58,0.00,,,-99.99,,2013-03-09 01:42:00,
2013-03-08 18:51:00,39.0,27.0,-100.00,South,185,0.0,2.0,60,0.00,,,-99.99,,2013-03-09 01:51:00,
2013-03-08 19:01:00,38.0,26.0,-100.00,SW,235,0.0,0.0,63,0.00,,,-99.99,,2013-03-09 02:01:00,
2013-03-08 19:11:00,38.0,29.0,-100.00,WNW,285,5.0,9.0,67,0.00,,,-99.99,,2013-03-09 02:11:00,
2013-03-08 19:21:00,38.0,29.0,-100.00,NW,315,3.0,6.0,69,0.00,,,-99.99,,2013-03-09 02:21:00,
2013-03-08 19:31:00,39.0,30.0,-100.00,NW,315,3.0,7.0,71,0.00,,,-99.99,,2013-03-09 02:31:00,
2013-03-08 19:41:00,38.0,30.0,-100.00,North,0,4.0,7.0,72,0.00,,,-99.99,,2013-03-09 02:41:00,
2013-03-08 19:51:00,38.0,30.0,-100.00,WNW,290,2.0,7.0,72,0.00,,,-99.99,,2013-03-09 02:51:00,
2013-03-08 20:01:00,37.0,29.0,-100.00,SSE,165,1.0,6.0,73,0.00,,,-99.99,,2013-03-09 03:01:00,
2013-03-08 20:11:00,36.0,29.0,-100.00,SSW,210,0.0,4.0,75,0.00,,,-99.99,,2013-03-09 03:11:00,
2013-03-08 20:21:00,35.0,28.0,-100.00,WSW,240,0.0,0.0,76,0.00,,,-99.99,,2013-03-09 03:21:00,
2013-03-08 20:31:00,35.0,29.0,-100.00,SSW,195,0.0,0.0,78,0.00,,,-99.99,,2013-03-09 03:31:00,
2013-03-08 20:41:00,35.0,29.0,-100.00,South,190,0.0,1.0,79,0.00,,,-99.99,,2013-03-09 03:41:00,
2013-03-08 20:52:00,34.0,29.0,-100.00,South,180,0.0,2.0,80,0.00,,,-99.99,,2013-03-09 03:52:00,
2013-03-08 21:01:00,35.0,30.0,-100.00,SSE,150,0.0,4.0,82,0.00,,,-99.99,,2013-03-09 04:01:00,
2013-03-08 21:11:00,35.0,30.0,-100.00,South,170,1.0,5.0,82,0.00,,,-99.99,,2013-03-09 04:11:00,
2013-03-08 21:22:00,34.0,30.0,-100.00,South,170,0.0,3.0,83,0.00,,,-99.99,,2013-03-09 04:22:00,
2013-03-08 21:32:00,34.0,29.0,-100.00,South,180,0.0,0.0,83,0.00,,,-99.99,,2013-03-09 04:32:00,
2013-03-08 21:41:00,34.0,30.0,-100.00,West,280,0.0,0.0,84,0.00,,,-99.99,,2013-03-09 04:41:00,
2013-03-08 21:51:00,34.0,30.0,-100.00,SW,215,0.0,0.0,84,0.00,,,-99.99,,2013-03-09 04:51:00,
2013-03-08 22:02:00,34.0,30.0,-100.00,SSW,205,2.0,3.0,85,0.00,,,-99.99,,2013-03-09 05:02:00,
2013-03-08 22:12:00,35.0,30.0,-100.00,South,190,3.0,4.0,85,0.00,,,-99.99,,2013-03-09 05:12:00,
2013-03-08 22:22:00,35.0,31.0,-100.00,SSW,195,4.0,6.0,85,0.00,,,-99.99,,2013-03-09 05:22:00,
2013-03-08 22:32:00,35.0,31.0,-100.00,WNW,295,1.0,6.0,85,0.00,,,-99.99,,2013-03-09 05:32:00,
2013-03-08 22:42:00,34.0,31.0,-100.00,WNW,295,1.0,2.0,86,0.00,,,-99.99,,2013-03-09 05:42:00,
2013-03-08 22:52:00,34.0,31.0,-100.00,WNW,300,2.0,5.0,87,0.00,,,-99.99,,2013-03-09 05:52:00,
2013-03-08 23:02:00,34.0,31.0,-100.00,NW,325,1.0,4.0,88,0.00,,,-99.99,,2013-03-09 06:02:00,
2013-03-08 23:11:00,34.0,31.0,-100.00,West,280,0.0,3.0,89,0.00,,,-99.99,,2013-03-09 06:11:00,
2013-03-08 23:22:00,33.0,31.0,-100.00,WNW,290,0.0,0.0,90,0.00,,,-99.99,,2013-03-09 06:22:00,
2013-03-08 23:32:00,33.0,31.0,-100.00,NW,320,2.0,7.0,90,0.00,,,-99.99,,2013-03-09 06:32:00,
2013-03-08 23:42:00,33.0,31.0,-100.00,NW,305,0.0,3.0,91,0.00,,,-99.99,,2013-03-09 06:42:00,
2013-03-08 23:51:00,33.0,31.0,-100.00,North,0,0.0,0.0,91,0.00,,,-99.99,,2013-03-09 06:51:00,